Time,TemperatureF,DewpointF,PressureIn,WindDirection,WindDirectionDegrees,WindSpeedMPH,WindSpeedGustMPH,Humidity,HourlyPrecipIn,Conditions,Clouds,dailyrainin,SoftwareType,DateUTC
2013-07-03 00:01:00,64.1,61.1,30.00,East,88,0.0,1.0,90,0.00,,,0.00,WeatherCatV1.15B25,2013-07-03 04:01:00,
2013-07-03 00:02:00,64.1,61.1,30.00,East,88,0.0,0.0,90,0.00,,,0.00,WeatherCatV1.15B25,2013-07-03 04:02:00,
2013-07-03 00:07:00,64.0,61.0,30.00,East,88,0.0,1.0,90,0.00,,,0.00,WeatherCatV1.15B25,2013-07-03 04:07:00,
2013-07-03 00:10:00,63.9,60.9,30.00,East,88,0.0,1.0,90,0.00,,,0.00,WeatherCatV1.15B25,2013-07-03 04:10:00,
2013-07-03 00:15:00,63.7,60.7,30.00,East,88,0.0,1.0,90,0.00,,,0.00,WeatherCatV1.15B25,2013-07-03 04:15:00,
2013-07-03 00:20:00,63.5,60.8,30.00,East,88,0.0,1.0,91,0.00,,,0.00,WeatherCatV1.15B25,2013-07-03 04:20:00,
2013-07-03 00:24:00,63.4,60.7,30.00,East,88,0.0,0.0,91,0.00,,,0.00,WeatherCatV1.15B25,2013-07-03 04:24:00,
2013-07-03 00:25:00,63.4,60.7,30.00,East,88,0.0,0.0,91,0.00,,,0.00,WeatherCatV1.15B25,2013-07-03 04:25:00,
2013-07-03 00:30:00,63.2,60.5,30.00,East,88,0.0,0.0,91,0.00,,,0.00,WeatherCatV1.15B25,2013-07-03 04:30:00,
2013-07-03 00:35:00,63.0,60.3,30.00,East,88,0.0,0.0,91,0.00,,,0.00,WeatherCatV1.15B25,2013-07-03 04:35:00,
2013-07-03 00:39:00,62.8,60.4,30.00,East,88,0.0,0.0,92,0.00,,,0.00,WeatherCatV1.15B25,2013-07-03 04:39:00,
2013-07-03 00:44:00,62.6,60.2,30.00,East,88,0.0,0.0,92,0.00,,,0.00,WeatherCatV1.15B25,2013-07-03 04:44:00,
2013-07-03 00:49:00,62.3,59.9,30.00,East,88,0.0,1.0,92,0.00,,,0.00,WeatherCatV1.15B25,2013-07-03 04:49:00,
2013-07-03 00:54:00,62.2,60.1,30.00,NE,39,1.0,3.0,93,0.00,,,0.00,WeatherCatV1.15B25,2013-07-03 04:54:00,
2013-07-03 00:59:00,62.1,60.0,30.00,NE,40,0.0,1.0,93,0.00,,,0.00,WeatherCatV1.15B25,2013-07-03 04:59:00,
2013-07-03 01:04:00,61.9,59.8,29.99,NE,40,0.0,0.0,93,0.00,,,0.00,WeatherCatV1.15B25,2013-07-03 05:04:00,
2013-07-03 01:09:00,61.8,59.8,29.99,NE,40,0.0,0.0,93,0.00,,,0.00,WeatherCatV1.15B25,2013-07-03 05:09:00,
2013-07-03 01:14:00,61.8,59.8,29.99,NE,40,0.0,1.0,93,0.00,,,0.00,WeatherCatV1.15B25,2013-07-03 05:14:00,
2013-07-03 01:17:00,61.8,59.8,29.99,ENE,66,0.0,0.0,93,0.00,,,0.00,WeatherCatV1.15B25,2013-07-03 05:17:00,
2013-07-03 01:22:00,61.8,60.1,29.98,ENE,66,2.0,2.0,94,0.00,,,0.00,WeatherCatV1.15B25,2013-07-03 05:22:00,
2013-07-03 01:27:00,61.8,60.1,29.99,East,95,2.0,3.0,94,0.00,,,0.00,WeatherCatV1.15B25,2013-07-03 05:27:00,
2013-07-03 01:32:00,61.8,60.1,29.99,East,86,1.0,2.0,94,0.00,,,0.00,WeatherCatV1.15B25,2013-07-03 05:32:00,
2013-07-03 01:37:00,62.0,60.2,29.99,East,86,0.0,1.0,94,0.00,,,0.00,WeatherCatV1.15B25,2013-07-03 05:37:00,
2013-07-03 01:42:00,62.1,60.3,29.99,East,86,0.0,1.0,94,0.00,,,0.00,WeatherCatV1.15B25,2013-07-03 05:42:00,
2013-07-03 01:47:00,62.3,60.5,29.99,ESE,106,2.0,2.0,94,0.00,,,0.00,WeatherCatV1.15B25,2013-07-03 05:47:00,
2013-07-03 01:51:00,62.4,60.6,29.99,ESE,107,0.0,1.0,94,0.00,,,0.00,WeatherCatV1.15B25,2013-07-03 05:51:00,
2013-07-03 01:56:00,62.5,60.7,29.99,East,91,2.0,3.0,94,0.00,,,0.00,WeatherCatV1.15B25,2013-07-03 05:56:00,
2013-07-03 02:01:00,62.4,60.6,29.98,ENE,74,3.0,3.0,94,0.00,,,0.00,WeatherCatV1.15B25,2013-07-03 06:01:00,
2013-07-03 02:06:00,62.4,60.6,29.98,ENE,71,3.0,3.0,94,0.00,,,0.00,WeatherCatV1.15B25,2013-07-03 06:06:00,
2013-07-03 02:11:00,62.6,60.8,29.99,SE,125,2.0,3.0,94,0.00,,,0.00,WeatherCatV1.15B25,2013-07-03 06:11:00,
2013-07-03 02:16:00,62.7,60.9,29.99,ESE,105,0.0,2.0,94,0.00,,,0.00,WeatherCatV1.15B25,2013-07-03 06:16:00,
2013-07-03 02:20:00,62.8,61.0,30.00,SE,146,0.0,1.0,94,0.00,,,0.00,WeatherCatV1.15B25,2013-07-03 06:20:00,
2013-07-03 02:25:00,62.9,61.1,29.99,ESE,111,0.0,1.0,94,0.00,,,0.00,WeatherCatV1.15B25,2013-07-03 06:25:00,
2013-07-03 02:31:00,63.0,60.9,29.99,East,101,3.0,3.0,93,0.00,,,0.00,WeatherCatV1.15B25,2013-07-03 06:31:00,
2013-07-03 02:36:00,63.1,61.0,29.98,East,101,0.0,2.0,93,0.00,,,0.00,WeatherCatV1.15B25,2013-07-03 06:36:00,
2013-07-03 02:41:00,63.1,61.0,29.98,East,82,1.0,4.0,93,0.00,,,0.00,WeatherCatV1.15B25,2013-07-03 06:41:00,
2013-07-03 02:46:00,63.1,61.0,29.98,ENE,69,1.0,2.0,93,0.00,,,0.00,WeatherCatV1.15B25,2013-07-03 06:46:00,
2013-07-03 02:51:00,63.0,60.9,29.98,East,95,1.0,3.0,93,0.00,,,0.00,WeatherCatV1.15B25,2013-07-03 06:51:00,
2013-07-03 02:56:00,63.0,60.9,29.99,East,95,1.0,2.0,93,0.00,,,0.00,WeatherCatV1.15B25,2013-07-03 06:56:00,
2013-07-03 03:01:00,63.0,60.9,29.98,East,95,2.0,2.0,93,0.00,,,0.00,WeatherCatV1.15B25,2013-07-03 07:01:00,
2013-07-03 03:06:00,62.9,60.8,29.97,East,83,0.0,2.0,93,0.00,,,0.00,WeatherCatV1.15B25,2013-07-03 07:06:00,
2013-07-03 03:11:00,62.9,60.8,29.97,ENE,78,1.0,1.0,93,0.00,,,0.00,WeatherCatV1.15B25,2013-07-03 07:11:00,
2013-07-03 03:15:00,62.8,60.7,29.97,ENE,76,0.0,1.0,93,0.00,,,0.00,WeatherCatV1.15B25,2013-07-03 07:15:00,
2013-07-03 03:20:00,62.6,60.5,29.97,ENE,76,0.0,1.0,93,0.00,,,0.00,WeatherCatV1.15B25,2013-07-03 07:20:00,
2013-07-03 03:25:00,62.5,60.4,29.97,ENE,76,0.0,2.0,93,0.00,,,0.00,WeatherCatV1.15B25,2013-07-03 07:25:00,
2013-07-03 03:30:00,62.5,60.4,29.97,ENE,76,0.0,2.0,93,0.00,,,0.00,WeatherCatV1.15B25,2013-07-03 07:30:00,
2013-07-03 03:35:00,62.4,60.6,29.96,ENE,76,0.0,2.0,94,0.00,,,0.00,WeatherCatV1.15B25,2013-07-03 07:35:00,
2013-07-03 03:38:00,62.4,60.6,29.96,ENE,72,0.0,3.0,94,0.00,,,0.00,WeatherCatV1.15B25,2013-07-03 07:38:00,
2013-07-03 03:43:00,62.4,60.6,29.96,ENE,72,1.0,2.0,94,0.00,,,0.00,WeatherCatV1.15B25,2013-07-03 07:43:00,
2013-07-03 03:48:00,62.4,60.6,29.96,ENE,72,0.0,1.0,94,0.00,,,0.00,WeatherCatV1.15B25,2013-07-03 07:48:00,
2013-07-03 03:53:00,62.3,60.5,29.96,ENE,72,0.0,1.0,94,0.00,,,0.00,WeatherCatV1.15B25,2013-07-03 07:53:00,
2013-07-03 03:58:00,62.3,60.5,29.96,ENE,59,0.0,3.0,94,0.00,,,0.00,WeatherCatV1.15B25,2013-07-03 07:58:00,
2013-07-03 03:59:00,62.3,60.5,29.96,ENE,59,0.0,1.0,94,0.00,,,0.00,WeatherCatV1.15B25,2013-07-03 07:59:00,
2013-07-03 04:04:00,62.3,60.5,29.96,ENE,59,0.0,0.0,94,0.00,,,0.00,WeatherCatV1.15B25,2013-07-03 08:04:00,
2013-07-03 04:09:00,62.1,60.3,29.96,ENE,59,0.0,0.0,94,0.00,,,0.00,WeatherCatV1.15B25,2013-07-03 08:09:00,
2013-07-03 04:12:00,62.1,60.3,29.96,ENE,59,1.0,1.0,94,0.00,,,0.00,WeatherCatV1.15B25,2013-07-03 08:12:00,
2013-07-03 04:17:00,62.1,60.3,29.97,ENE,59,0.0,0.0,94,0.00,,,0.00,WeatherCatV1.15B25,2013-07-03 08:17:00,
2013-07-03 04:22:00,62.0,60.2,29.96,ENE,59,0.0,0.0,94,0.00,,,0.00,WeatherCatV1.15B25,2013-07-03 08:22:00,
2013-07-03 04:27:00,61.9,60.2,29.97,ENE,59,0.0,0.0,94,0.00,,,0.00,WeatherCatV1.15B25,2013-07-03 08:27:00,
2013-07-03 04:32:00,61.9,60.2,29.96,ENE,59,1.0,1.0,94,0.00,,,0.00,WeatherCatV1.15B25,2013-07-03 08:32:00,
2013-07-03 04:37:00,61.7,60.0,29.96,ENE,69,0.0,1.0,94,0.00,,,0.00,WeatherCatV1.15B25,2013-07-03 08:37:00,
2013-07-03 04:40:00,61.7,60.0,29.96,ENE,69,0.0,0.0,94,0.00,,,0.00,WeatherCatV1.15B25,2013-07-03 08:40:00,
2013-07-03 04:45:00,61.6,59.9,29.96,ENE,69,0.0,0.0,94,0.00,,,0.00,WeatherCatV1.15B25,2013-07-03 08:45:00,
2013-07-03 04:50:00,61.6,60.2,29.96,ENE,69,0.0,1.0,95,0.00,,,0.00,WeatherCatV1.15B25,2013-07-03 08:50:00,
2013-07-03 04:55:00,61.6,60.2,29.96,ESE,119,1.0,3.0,95,0.00,,,0.00,WeatherCatV1.15B25,2013-07-03 08:55:00,
2013-07-03 05:00:00,61.6,60.2,29.96,East,101,0.0,1.0,95,0.00,,,0.00,WeatherCatV1.15B25,2013-07-03 09:00:00,
2013-07-03 05:05:00,61.6,60.2,29.97,ESE,119,1.0,2.0,95,0.00,,,0.00,WeatherCatV1.15B25,2013-07-03 09:05:00,
2013-07-03 05:09:00,61.6,60.2,29.97,East,90,0.0,3.0,95,0.00,,,0.00,WeatherCatV1.15B25,2013-07-03 09:09:00,
2013-07-03 05:14:00,61.6,60.2,29.97,ESE,109,0.0,2.0,95,0.00,,,0.00,WeatherCatV1.15B25,2013-07-03 09:14:00,
2013-07-03 05:19:00,61.6,60.2,29.97,ESE,119,1.0,2.0,95,0.00,,,0.00,WeatherCatV1.15B25,2013-07-03 09:19:00,
2013-07-03 05:24:00,61.7,60.2,29.98,ESE,115,0.0,1.0,95,0.00,,,0.00,WeatherCatV1.15B25,2013-07-03 09:24:00,
2013-07-03 05:29:00,61.8,60.3,29.97,ESE,111,1.0,2.0,95,0.00,,,0.00,WeatherCatV1.15B25,2013-07-03 09:29:00,
2013-07-03 05:34:00,61.9,60.2,29.98,East,96,0.0,3.0,94,0.00,,,0.00,WeatherCatV1.15B25,2013-07-03 09:34:00,
2013-07-03 05:39:00,62.0,60.2,29.98,ESE,105,2.0,3.0,94,0.00,,,0.00,WeatherCatV1.15B25,2013-07-03 09:39:00,
2013-07-03 05:44:00,62.1,60.6,29.98,East,80,2.0,2.0,95,0.00,,,0.00,WeatherCatV1.15B25,2013-07-03 09:44:00,
2013-07-03 05:49:00,62.1,60.3,29.98,ESE,105,0.0,3.0,94,0.00,,,0.00,WeatherCatV1.15B25,2013-07-03 09:49:00,
2013-07-03 05:50:00,62.2,60.4,29.98,ESE,105,0.0,1.0,94,0.00,,,0.00,WeatherCatV1.15B25,2013-07-03 09:50:00,
2013-07-03 05:55:00,62.2,60.4,29.98,East,89,2.0,3.0,94,0.00,,,0.00,WeatherCatV1.15B25,2013-07-03 09:55:00,
2013-07-03 06:00:00,62.3,60.5,29.98,SE,130,0.0,6.0,94,0.00,,,0.00,WeatherCatV1.15B25,2013-07-03 10:00:00,
2013-07-03 06:05:00,62.4,60.6,29.98,East,92,2.0,2.0,94,0.00,,,0.00,WeatherCatV1.15B25,2013-07-03 10:05:00,
2013-07-03 06:10:00,62.5,60.7,29.99,SSE,166,2.0,2.0,94,0.00,,,0.00,WeatherCatV1.15B25,2013-07-03 10:10:00,
2013-07-03 06:13:00,62.5,60.7,29.99,SSE,167,1.0,1.0,94,0.00,,,0.00,WeatherCatV1.15B25,2013-07-03 10:13:00,
2013-07-03 06:18:00,62.5,60.7,29.99,NNE,19,0.0,1.0,94,0.00,,,0.00,WeatherCatV1.15B25,2013-07-03 10:18:00,
2013-07-03 06:23:00,62.5,60.7,29.99,East,82,1.0,2.0,94,0.00,,,0.00,WeatherCatV1.15B25,2013-07-03 10:23:00,
2013-07-03 06:28:00,62.5,60.7,29.99,SE,134,2.0,2.0,94,0.00,,,0.00,WeatherCatV1.15B25,2013-07-03 10:28:00,
2013-07-03 06:33:00,62.6,60.8,30.00,ESE,121,2.0,4.0,94,0.00,,,0.00,WeatherCatV1.15B25,2013-07-03 10:33:00,
2013-07-03 06:38:00,62.6,60.8,29.99,ESE,120,2.0,4.0,94,0.00,,,0.00,WeatherCatV1.15B25,2013-07-03 10:38:00,
2013-07-03 06:43:00,62.6,60.8,30.00,NNW,340,0.0,1.0,94,0.00,,,0.00,WeatherCatV1.15B25,2013-07-03 10:43:00,
2013-07-03 06:48:00,62.6,60.8,30.00,SSE,149,0.0,2.0,94,0.00,,,0.00,WeatherCatV1.15B25,2013-07-03 10:48:00,
2013-07-03 06:51:00,62.6,60.8,30.00,SE,136,1.0,3.0,94,0.00,,,0.00,WeatherCatV1.15B25,2013-07-03 10:51:00,
2013-07-03 06:56:00,62.6,60.8,30.00,SE,128,1.0,4.0,94,0.00,,,0.00,WeatherCatV1.15B25,2013-07-03 10:56:00,
2013-07-03 07:01:00,62.7,60.9,30.00,SE,128,0.0,2.0,94,0.00,,,0.00,WeatherCatV1.15B25,2013-07-03 11:01:00,
2013-07-03 07:06:00,62.7,61.2,29.99,SE,128,0.0,1.0,95,0.00,,,0.00,WeatherCatV1.15B25,2013-07-03 11:06:00,
2013-07-03 07:11:00,62.8,61.3,30.00,WSW,238,0.0,3.0,95,0.00,,,0.00,WeatherCatV1.15B25,2013-07-03 11:11:00,
2013-07-03 07:16:00,62.8,61.3,30.00,SW,234,2.0,3.0,95,0.00,,,0.00,WeatherCatV1.15B25,2013-07-03 11:16:00,
2013-07-03 07:21:00,62.8,61.3,30.00,SE,136,4.0,4.0,95,0.00,,,0.00,WeatherCatV1.15B25,2013-07-03 11:21:00,
2013-07-03 07:25:00,62.9,61.4,30.00,SE,131,1.0,2.0,95,0.00,,,0.00,WeatherCatV1.15B25,2013-07-03 11:25:00,
2013-07-03 07:30:00,62.9,61.7,30.00,NNE,20,0.0,2.0,96,0.00,,,0.00,WeatherCatV1.15B25,2013-07-03 11:30:00,
2013-07-03 07:31:00,62.9,61.7,30.00,NNE,20,0.0,2.0,96,0.00,,,0.00,WeatherCatV1.15B25,2013-07-03 11:31:00,
2013-07-03 07:36:00,63.0,61.8,30.00,ESE,118,2.0,3.0,96,0.00,,,0.00,WeatherCatV1.15B25,2013-07-03 11:36:00,
2013-07-03 07:41:00,63.1,61.9,30.00,SW,233,2.0,3.0,96,0.00,,,0.00,WeatherCatV1.15B25,2013-07-03 11:41:00,
2013-07-03 07:42:00,63.1,61.9,30.00,South,187,1.0,3.0,96,0.00,,,0.00,WeatherCatV1.15B25,2013-07-03 11:42:00,
2013-07-03 07:47:00,63.2,62.0,30.00,SSW,192,0.0,1.0,96,0.00,,,0.00,WeatherCatV1.15B25,2013-07-03 11:47:00,
2013-07-03 07:51:00,63.3,62.1,30.00,SSE,157,0.0,2.0,96,0.00,,,0.00,WeatherCatV1.15B25,2013-07-03 11:51:00,
2013-07-03 07:56:00,63.5,62.3,30.00,SW,226,1.0,1.0,96,0.00,,,0.00,WeatherCatV1.15B25,2013-07-03 11:56:00,
2013-07-03 07:59:00,63.5,62.3,30.00,SW,223,2.0,3.0,96,0.00,,,0.00,WeatherCatV1.15B25,2013-07-03 11:59:00,
2013-07-03 08:04:00,63.5,62.3,30.01,WNW,284,1.0,2.0,96,0.00,,,0.00,WeatherCatV1.15B25,2013-07-03 12:04:00,
2013-07-03 08:09:00,63.6,62.4,30.01,East,86,2.0,3.0,96,0.00,,,0.00,WeatherCatV1.15B25,2013-07-03 12:09:00,
2013-07-03 08:12:00,63.6,62.4,30.01,East,94,1.0,3.0,96,0.00,,,0.00,WeatherCatV1.15B25,2013-07-03 12:12:00,
2013-07-03 08:17:00,63.8,62.6,30.01,East,101,1.0,3.0,96,0.00,,,0.00,WeatherCatV1.15B25,2013-07-03 12:17:00,
2013-07-03 08:22:00,63.9,62.7,30.01,East,100,2.0,2.0,96,0.00,,,0.00,WeatherCatV1.15B25,2013-07-03 12:22:00,
2013-07-03 08:27:00,64.0,62.8,30.01,ESE,107,3.0,4.0,96,0.00,,,0.00,WeatherCatV1.15B25,2013-07-03 12:27:00,
2013-07-03 08:32:00,63.9,62.7,30.01,ESE,105,4.0,5.0,96,0.00,,,0.00,WeatherCatV1.15B25,2013-07-03 12:32:00,
2013-07-03 08:37:00,64.1,62.9,30.01,East,92,3.0,3.0,96,0.00,,,0.00,WeatherCatV1.15B25,2013-07-03 12:37:00,
2013-07-03 08:42:00,64.3,63.1,30.01,SE,124,1.0,2.0,96,0.00,,,0.00,WeatherCatV1.15B25,2013-07-03 12:42:00,
2013-07-03 08:47:00,64.5,63.6,30.01,SW,219,0.0,3.0,97,0.00,,,0.00,WeatherCatV1.15B25,2013-07-03 12:47:00,
2013-07-03 08:52:00,64.6,63.4,30.02,ESE,115,3.0,3.0,96,0.00,,,0.00,WeatherCatV1.15B25,2013-07-03 12:52:00,
2013-07-03 08:57:00,64.7,63.5,30.02,SE,140,3.0,3.0,96,0.00,,,0.00,WeatherCatV1.15B25,2013-07-03 12:57:00,
2013-07-03 09:02:00,64.8,63.6,30.01,ESE,103,3.0,5.0,96,0.00,,,0.00,WeatherCatV1.15B25,2013-07-03 13:02:00,
2013-07-03 09:07:00,64.9,63.7,30.01,East,94,2.0,7.0,96,0.00,,,0.00,WeatherCatV1.15B25,2013-07-03 13:07:00,
2013-07-03 09:12:00,65.0,63.8,30.02,ESE,114,3.0,6.0,96,0.00,,,0.00,WeatherCatV1.15B25,2013-07-03 13:12:00,
2013-07-03 09:17:00,65.1,64.2,30.02,ESE,115,4.0,5.0,97,0.00,,,0.00,WeatherCatV1.15B25,2013-07-03 13:17:00,
2013-07-03 09:22:00,65.4,64.5,30.02,SE,128,5.0,5.0,97,0.00,,,0.00,WeatherCatV1.15B25,2013-07-03 13:22:00,
2013-07-03 09:27:00,65.4,64.2,30.02,SSE,148,1.0,3.0,96,0.00,,,0.00,WeatherCatV1.15B25,2013-07-03 13:27:00,
2013-07-03 09:32:00,65.6,64.4,30.03,SSE,153,2.0,4.0,96,0.00,,,0.00,WeatherCatV1.15B25,2013-07-03 13:32:00,
2013-07-03 09:37:00,65.9,65.0,30.03,SE,132,6.0,7.0,97,0.00,,,0.00,WeatherCatV1.15B25,2013-07-03 13:37:00,
2013-07-03 09:42:00,66.1,65.2,30.03,SSE,167,3.0,6.0,97,0.00,,,0.00,WeatherCatV1.15B25,2013-07-03 13:42:00,
2013-07-03 09:47:00,66.5,65.6,30.03,SE,136,5.0,7.0,97,0.00,,,0.00,WeatherCatV1.15B25,2013-07-03 13:47:00,
2013-07-03 09:52:00,66.6,65.7,30.03,South,181,4.0,6.0,97,0.00,,,0.00,WeatherCatV1.15B25,2013-07-03 13:52:00,
2013-07-03 09:57:00,66.7,65.8,30.03,SSE,164,3.0,7.0,97,0.00,,,0.00,WeatherCatV1.15B25,2013-07-03 13:57:00,
2013-07-03 10:02:00,67.0,66.1,30.03,South,171,3.0,5.0,97,0.00,,,0.00,WeatherCatV1.15B25,2013-07-03 14:02:00,
2013-07-03 10:07:00,67.0,66.1,30.03,South,188,4.0,6.0,97,0.00,,,0.00,WeatherCatV1.15B25,2013-07-03 14:07:00,
2013-07-03 10:12:00,67.0,66.1,30.03,South,171,6.0,6.0,97,0.00,,,0.00,WeatherCatV1.15B25,2013-07-03 14:12:00,
2013-07-03 10:17:00,67.0,65.8,30.04,SW,216,4.0,7.0,96,0.00,,,0.00,WeatherCatV1.15B25,2013-07-03 14:17:00,
2013-07-03 10:22:00,67.2,66.0,30.04,South,185,3.0,4.0,96,0.00,,,0.00,WeatherCatV1.15B25,2013-07-03 14:22:00,
2013-07-03 10:27:00,67.2,66.0,30.03,SSW,209,3.0,5.0,96,0.00,,,0.00,WeatherCatV1.15B25,2013-07-03 14:27:00,
2013-07-03 10:32:00,67.4,66.2,30.03,SW,218,4.0,7.0,96,0.00,,,0.00,WeatherCatV1.15B25,2013-07-03 14:32:00,
2013-07-03 10:37:00,67.8,66.3,30.03,SSW,193,3.0,7.0,95,0.00,,,0.00,WeatherCatV1.15B25,2013-07-03 14:37:00,
2013-07-03 10:42:00,68.0,66.2,30.03,WSW,254,3.0,4.0,94,0.00,,,0.00,WeatherCatV1.15B25,2013-07-03 14:42:00,
2013-07-03 10:47:00,68.5,66.4,30.03,South,178,4.0,5.0,93,0.00,,,0.00,WeatherCatV1.15B25,2013-07-03 14:47:00,
2013-07-03 10:52:00,69.1,66.7,30.03,South,188,1.0,8.0,92,0.00,,,0.00,WeatherCatV1.15B25,2013-07-03 14:52:00,
2013-07-03 10:57:00,69.7,66.6,30.03,South,186,5.0,7.0,90,0.00,,,0.00,WeatherCatV1.15B25,2013-07-03 14:57:00,
2013-07-03 11:02:00,70.6,67.8,30.03,SW,235,3.0,5.0,91,0.00,,,0.00,WeatherCatV1.15B25,2013-07-03 15:02:00,
2013-07-03 11:07:00,71.2,67.8,30.03,SW,219,0.0,3.0,89,0.00,,,0.00,WeatherCatV1.15B25,2013-07-03 15:07:00,
2013-07-03 11:12:00,71.7,67.3,30.03,SSW,212,2.0,7.0,86,0.00,,,0.00,WeatherCatV1.15B25,2013-07-03 15:12:00,
2013-07-03 11:17:00,71.7,66.9,30.03,WSW,253,4.0,6.0,85,0.00,,,0.00,WeatherCatV1.15B25,2013-07-03 15:17:00,
2013-07-03 11:22:00,71.6,67.2,30.03,SW,231,0.0,3.0,86,0.00,,,0.00,WeatherCatV1.15B25,2013-07-03 15:22:00,
2013-07-03 11:27:00,72.1,68.0,30.03,SW,215,2.0,4.0,87,0.00,,,0.00,WeatherCatV1.15B25,2013-07-03 15:27:00,
2013-07-03 11:33:00,72.6,67.8,30.03,SSW,211,2.0,4.0,85,0.00,,,0.00,WeatherCatV1.15B25,2013-07-03 15:33:00,
2013-07-03 11:38:00,72.7,67.2,30.03,WSW,247,2.0,4.0,83,0.00,,,0.00,WeatherCatV1.15B25,2013-07-03 15:38:00,
2013-07-03 11:39:00,72.8,68.0,30.03,West,263,5.0,6.0,85,0.00,,,0.00,WeatherCatV1.15B25,2013-07-03 15:39:00,
2013-07-03 11:44:00,73.3,68.8,30.03,SSW,202,4.0,6.0,86,0.00,,,0.00,WeatherCatV1.15B25,2013-07-03 15:44:00,
2013-07-03 11:49:00,73.7,67.8,30.03,SW,219,1.0,5.0,82,0.00,,,0.00,WeatherCatV1.15B25,2013-07-03 15:49:00,
2013-07-03 11:51:00,73.9,68.0,30.03,WSW,243,3.0,6.0,82,0.00,,,0.00,WeatherCatV1.15B25,2013-07-03 15:51:00,
2013-07-03 11:56:00,74.3,68.8,30.03,SW,217,4.0,7.0,83,0.00,,,0.00,WeatherCatV1.15B25,2013-07-03 15:56:00,
2013-07-03 12:01:00,74.8,67.8,30.03,SSE,163,3.0,7.0,79,0.00,,,0.00,WeatherCatV1.15B25,2013-07-03 16:01:00,
2013-07-03 12:06:00,75.3,67.9,30.03,SW,227,2.0,5.0,78,0.00,,,0.00,WeatherCatV1.15B25,2013-07-03 16:06:00,
2013-07-03 12:11:00,75.5,67.8,30.03,SSE,162,4.0,7.0,77,0.00,,,0.00,WeatherCatV1.15B25,2013-07-03 16:11:00,
2013-07-03 12:16:00,75.6,67.5,30.02,South,191,2.0,4.0,76,0.00,,,0.00,WeatherCatV1.15B25,2013-07-03 16:16:00,
2013-07-03 12:21:00,76.0,68.3,30.03,SW,227,2.0,5.0,77,0.00,,,0.00,WeatherCatV1.15B25,2013-07-03 16:21:00,
2013-07-03 12:26:00,76.2,68.1,30.03,SW,225,3.0,5.0,76,0.00,,,0.00,WeatherCatV1.15B25,2013-07-03 16:26:00,
2013-07-03 12:31:00,76.4,68.6,30.03,South,170,2.0,5.0,77,0.00,,,0.00,WeatherCatV1.15B25,2013-07-03 16:31:00,
2013-07-03 12:36:00,76.8,68.3,30.02,SSW,202,6.0,9.0,75,0.00,,,0.00,WeatherCatV1.15B25,2013-07-03 16:36:00,
2013-07-03 12:41:00,76.8,67.5,30.02,WSW,254,1.0,8.0,73,0.00,,,0.00,WeatherCatV1.15B25,2013-07-03 16:41:00,
2013-07-03 12:45:00,77.0,68.8,30.02,SW,234,3.0,7.0,76,0.00,,,0.00,WeatherCatV1.15B25,2013-07-03 16:45:00,
2013-07-03 12:50:00,77.0,67.7,30.02,SW,218,3.0,8.0,73,0.00,,,0.00,WeatherCatV1.15B25,2013-07-03 16:50:00,
2013-07-03 12:55:00,77.3,68.3,30.02,WSW,248,4.0,6.0,74,0.00,,,0.00,WeatherCatV1.15B25,2013-07-03 16:55:00,
2013-07-03 13:00:00,77.3,68.3,30.02,SW,221,3.0,6.0,74,0.00,,,0.00,WeatherCatV1.15B25,2013-07-03 17:00:00,
2013-07-03 13:05:00,77.5,68.5,30.02,South,177,6.0,6.0,74,0.00,,,0.00,WeatherCatV1.15B25,2013-07-03 17:05:00,
2013-07-03 13:10:00,77.7,69.1,30.01,SSW,213,2.0,7.0,75,0.00,,,0.00,WeatherCatV1.15B25,2013-07-03 17:10:00,
2013-07-03 13:15:00,77.9,66.9,30.01,South,186,5.0,8.0,69,0.00,,,0.00,WeatherCatV1.15B25,2013-07-03 17:15:00,
2013-07-03 13:20:00,77.9,66.9,30.01,SSW,213,6.0,8.0,69,0.00,,,0.00,WeatherCatV1.15B25,2013-07-03 17:20:00,
2013-07-03 13:25:00,78.0,67.4,30.01,SSW,196,3.0,8.0,70,0.00,,,0.00,WeatherCatV1.15B25,2013-07-03 17:25:00,
2013-07-03 13:26:00,78.0,67.8,30.01,SW,217,5.0,7.0,71,0.00,,,0.00,WeatherCatV1.15B25,2013-07-03 17:26:00,
2013-07-03 13:31:00,78.1,67.1,30.01,SSW,203,2.0,7.0,69,0.00,,,0.00,WeatherCatV1.15B25,2013-07-03 17:31:00,
2013-07-03 13:34:00,78.2,67.2,30.01,SSW,207,2.0,6.0,69,0.00,,,0.00,WeatherCatV1.15B25,2013-07-03 17:34:00,
2013-07-03 13:39:00,78.7,68.1,30.01,South,178,4.0,6.0,70,0.00,,,0.00,WeatherCatV1.15B25,2013-07-03 17:39:00,
2013-07-03 13:44:00,78.1,67.1,30.01,West,276,2.0,7.0,69,0.00,,,0.00,WeatherCatV1.15B25,2013-07-03 17:44:00,
2013-07-03 13:49:00,77.8,66.8,30.02,South,178,4.0,7.0,69,0.00,,,0.00,WeatherCatV1.15B25,2013-07-03 17:49:00,
2013-07-03 13:54:00,77.6,68.2,30.02,SSW,194,6.0,7.0,73,0.00,,,0.00,WeatherCatV1.15B25,2013-07-03 17:54:00,
2013-07-03 13:59:00,78.0,68.6,30.02,SSW,209,6.0,8.0,73,0.00,,,0.00,WeatherCatV1.15B25,2013-07-03 17:59:00,
2013-07-03 14:04:00,78.3,68.1,30.02,WSW,250,1.0,6.0,71,0.00,,,0.00,WeatherCatV1.15B25,2013-07-03 18:04:00,
2013-07-03 14:09:00,78.2,67.6,30.02,SSW,211,4.0,9.0,70,0.00,,,0.00,WeatherCatV1.15B25,2013-07-03 18:09:00,
2013-07-03 14:14:00,77.9,66.5,30.01,SSW,200,3.0,8.0,68,0.00,,,0.00,WeatherCatV1.15B25,2013-07-03 18:14:00,
2013-07-03 14:19:00,78.2,66.3,30.01,West,268,4.0,8.0,67,0.00,,,0.00,WeatherCatV1.15B25,2013-07-03 18:19:00,
2013-07-03 14:24:00,78.2,66.8,30.01,SSW,200,4.0,4.0,68,0.00,,,0.00,WeatherCatV1.15B25,2013-07-03 18:24:00,
2013-07-03 14:29:00,78.1,67.5,30.01,South,178,5.0,9.0,70,0.00,,,0.00,WeatherCatV1.15B25,2013-07-03 18:29:00,
2013-07-03 14:34:00,78.4,66.9,30.00,SE,138,1.0,2.0,68,0.00,,,0.00,WeatherCatV1.15B25,2013-07-03 18:34:00,
2013-07-03 14:39:00,78.7,66.8,30.01,SSE,161,3.0,7.0,67,0.00,,,0.00,WeatherCatV1.15B25,2013-07-03 18:39:00,
2013-07-03 14:45:00,78.3,66.0,30.00,SSW,197,5.0,7.0,66,0.00,,,0.00,WeatherCatV1.15B25,2013-07-03 18:45:00,
2013-07-03 14:50:00,78.6,67.6,30.00,WNW,294,2.0,5.0,69,0.00,,,0.00,WeatherCatV1.15B25,2013-07-03 18:50:00,
2013-07-03 14:55:00,79.1,65.9,30.00,WSW,248,4.0,4.0,64,0.00,,,0.00,WeatherCatV1.15B25,2013-07-03 18:55:00,
2013-07-03 15:00:00,79.3,66.9,30.00,South,171,7.0,8.0,66,0.00,,,0.00,WeatherCatV1.15B25,2013-07-03 19:00:00,
2013-07-03 15:05:00,79.2,66.8,30.00,SSW,197,2.0,5.0,66,0.00,,,0.00,WeatherCatV1.15B25,2013-07-03 19:05:00,
2013-07-03 15:10:00,78.9,67.0,30.00,South,172,4.0,5.0,67,0.00,,,0.00,WeatherCatV1.15B25,2013-07-03 19:10:00,
2013-07-03 15:15:00,79.2,69.0,30.00,SW,232,7.0,7.0,71,0.00,,,0.00,WeatherCatV1.15B25,2013-07-03 19:15:00,
2013-07-03 15:20:00,79.8,67.8,30.00,SSE,149,2.0,5.0,67,0.00,,,0.00,WeatherCatV1.15B25,2013-07-03 19:20:00,
2013-07-03 15:25:00,79.7,66.9,30.00,South,174,5.0,8.0,65,0.00,,,0.00,WeatherCatV1.15B25,2013-07-03 19:25:00,
2013-07-03 15:30:00,80.0,66.7,30.00,West,263,4.0,9.0,64,0.00,,,0.00,WeatherCatV1.15B25,2013-07-03 19:30:00,
2013-07-03 15:35:00,80.0,66.7,30.00,SSW,201,5.0,10.0,64,0.00,,,0.00,WeatherCatV1.15B25,2013-07-03 19:35:00,
2013-07-03 15:40:00,79.8,67.8,30.00,South,169,4.0,5.0,67,0.00,,,0.00,WeatherCatV1.15B25,2013-07-03 19:40:00,
2013-07-03 15:45:00,80.2,68.2,30.00,SW,215,5.0,5.0,67,0.00,,,0.00,WeatherCatV1.15B25,2013-07-03 19:45:00,
2013-07-03 15:50:00,80.3,68.3,29.99,South,188,2.0,5.0,67,0.00,,,0.00,WeatherCatV1.15B25,2013-07-03 19:50:00,
2013-07-03 15:55:00,80.4,68.4,29.99,WSW,242,2.0,7.0,67,0.00,,,0.00,WeatherCatV1.15B25,2013-07-03 19:55:00,
2013-07-03 16:00:00,80.6,68.2,29.99,South,188,1.0,6.0,66,0.00,,,0.00,WeatherCatV1.15B25,2013-07-03 20:00:00,
2013-07-03 16:05:00,80.5,68.5,29.99,South,176,4.0,5.0,67,0.00,,,0.00,WeatherCatV1.15B25,2013-07-03 20:05:00,
2013-07-03 16:10:00,80.0,66.7,29.99,SSW,196,2.0,6.0,64,0.00,,,0.00,WeatherCatV1.15B25,2013-07-03 20:10:00,
2013-07-03 16:15:00,80.3,67.4,29.99,South,185,7.0,11.0,65,0.00,,,0.00,WeatherCatV1.15B25,2013-07-03 20:15:00,
2013-07-03 16:20:00,80.3,67.0,29.99,South,186,6.0,7.0,64,0.00,,,0.00,WeatherCatV1.15B25,2013-07-03 20:20:00,
2013-07-03 16:25:00,80.2,66.9,29.99,SW,225,1.0,7.0,64,0.00,,,0.00,WeatherCatV1.15B25,2013-07-03 20:25:00,
2013-07-03 16:30:00,80.2,66.9,29.98,WSW,254,2.0,7.0,64,0.00,,,0.00,WeatherCatV1.15B25,2013-07-03 20:30:00,
2013-07-03 16:35:00,80.0,66.7,29.98,SW,217,3.0,6.0,64,0.00,,,0.00,WeatherCatV1.15B25,2013-07-03 20:35:00,
2013-07-03 16:41:00,80.2,68.7,29.98,SSW,210,4.0,7.0,68,0.00,,,0.00,WeatherCatV1.15B25,2013-07-03 20:41:00,
2013-07-03 16:46:00,80.3,68.3,29.98,SSW,207,2.0,4.0,67,0.00,,,0.00,WeatherCatV1.15B25,2013-07-03 20:46:00,
2013-07-03 16:51:00,80.2,67.8,29.98,South,175,2.0,4.0,66,0.00,,,0.00,WeatherCatV1.15B25,2013-07-03 20:51:00,
2013-07-03 16:56:00,79.8,68.3,29.98,SSE,155,4.0,6.0,68,0.00,,,0.00,WeatherCatV1.15B25,2013-07-03 20:56:00,
2013-07-03 17:01:00,79.8,67.8,29.98,South,181,4.0,8.0,67,0.00,,,0.00,WeatherCatV1.15B25,2013-07-03 21:01:00,
2013-07-03 17:07:00,80.2,68.2,29.98,SSW,206,3.0,8.0,67,0.00,,,0.00,WeatherCatV1.15B25,2013-07-03 21:07:00,
2013-07-03 17:12:00,80.2,67.3,29.98,South,180,5.0,7.0,65,0.00,,,0.00,WeatherCatV1.15B25,2013-07-03 21:12:00,
2013-07-03 17:17:00,80.1,67.2,29.98,SSW,192,2.0,7.0,65,0.00,,,0.00,WeatherCatV1.15B25,2013-07-03 21:17:00,
2013-07-03 17:22:00,79.9,67.1,29.98,South,174,1.0,4.0,65,0.00,,,0.00,WeatherCatV1.15B25,2013-07-03 21:22:00,
2013-07-03 17:27:00,80.0,67.6,29.98,SSW,201,4.0,5.0,66,0.00,,,0.00,WeatherCatV1.15B25,2013-07-03 21:27:00,
2013-07-03 17:32:00,80.2,67.8,29.98,SW,218,4.0,10.0,66,0.00,,,0.00,WeatherCatV1.15B25,2013-07-03 21:32:00,
2013-07-03 17:37:00,80.1,66.8,29.98,South,189,6.0,6.0,64,0.00,,,0.00,WeatherCatV1.15B25,2013-07-03 21:37:00,
2013-07-03 17:42:00,79.9,67.5,29.98,SSW,205,0.0,3.0,66,0.00,,,0.00,WeatherCatV1.15B25,2013-07-03 21:42:00,
2013-07-03 17:47:00,79.9,68.4,29.97,SSW,200,4.0,4.0,68,0.00,,,0.00,WeatherCatV1.15B25,2013-07-03 21:47:00,
2013-07-03 17:52:00,79.8,67.4,29.97,South,191,4.0,5.0,66,0.00,,,0.00,WeatherCatV1.15B25,2013-07-03 21:52:00,
2013-07-03 17:57:00,79.8,68.3,29.97,South,176,2.0,3.0,68,0.00,,,0.00,WeatherCatV1.15B25,2013-07-03 21:57:00,
2013-07-03 18:02:00,79.6,67.2,29.97,South,188,4.0,10.0,66,0.00,,,0.00,WeatherCatV1.15B25,2013-07-03 22:02:00,
2013-07-03 18:07:00,79.4,67.0,29.97,South,188,3.0,5.0,66,0.00,,,0.00,WeatherCatV1.15B25,2013-07-03 22:07:00,
2013-07-03 18:12:00,79.4,66.6,29.97,SSW,194,5.0,5.0,65,0.00,,,0.00,WeatherCatV1.15B25,2013-07-03 22:12:00,
2013-07-03 18:17:00,79.4,66.6,29.97,SSW,199,6.0,6.0,65,0.00,,,0.00,WeatherCatV1.15B25,2013-07-03 22:17:00,
2013-07-03 18:22:00,79.5,67.6,29.97,SSW,208,3.0,3.0,67,0.00,,,0.00,WeatherCatV1.15B25,2013-07-03 22:22:00,
2013-07-03 18:27:00,79.5,67.1,29.97,South,176,3.0,7.0,66,0.00,,,0.00,WeatherCatV1.15B25,2013-07-03 22:27:00,
2013-07-03 18:32:00,79.5,66.2,29.97,SSE,167,4.0,8.0,64,0.00,,,0.00,WeatherCatV1.15B25,2013-07-03 22:32:00,
2013-07-03 18:37:00,79.6,65.9,29.97,SW,225,3.0,8.0,63,0.00,,,0.00,WeatherCatV1.15B25,2013-07-03 22:37:00,
2013-07-03 18:42:00,79.5,66.2,29.97,SSE,167,3.0,5.0,64,0.00,,,0.00,WeatherCatV1.15B25,2013-07-03 22:42:00,
2013-07-03 18:47:00,79.4,66.6,29.97,South,188,3.0,3.0,65,0.00,,,0.00,WeatherCatV1.15B25,2013-07-03 22:47:00,
2013-07-03 18:52:00,79.3,66.0,29.97,South,191,4.0,6.0,64,0.00,,,0.00,WeatherCatV1.15B25,2013-07-03 22:52:00,
2013-07-03 18:57:00,79.1,66.3,29.97,South,187,3.0,4.0,65,0.00,,,0.00,WeatherCatV1.15B25,2013-07-03 22:57:00,
2013-07-03 19:02:00,79.0,66.6,29.97,SSE,164,2.0,4.0,66,0.00,,,0.00,WeatherCatV1.15B25,2013-07-03 23:02:00,
2013-07-03 19:07:00,78.8,66.9,29.97,SW,222,3.0,4.0,67,0.00,,,0.00,WeatherCatV1.15B25,2013-07-03 23:07:00,
2013-07-03 19:12:00,78.5,65.7,29.97,South,182,2.0,6.0,65,0.00,,,0.00,WeatherCatV1.15B25,2013-07-03 23:12:00,
2013-07-03 19:17:00,78.3,66.0,29.97,South,169,2.0,4.0,66,0.00,,,0.00,WeatherCatV1.15B25,2013-07-03 23:17:00,
2013-07-03 19:22:00,78.1,66.2,29.97,South,170,2.0,2.0,67,0.00,,,0.00,WeatherCatV1.15B25,2013-07-03 23:22:00,
2013-07-03 19:27:00,77.8,66.4,29.97,South,189,1.0,3.0,68,0.00,,,0.00,WeatherCatV1.15B25,2013-07-03 23:27:00,
2013-07-03 19:32:00,77.7,66.3,29.97,South,190,0.0,3.0,68,0.00,,,0.00,WeatherCatV1.15B25,2013-07-03 23:32:00,
2013-07-03 19:37:00,77.6,66.6,29.98,South,185,1.0,2.0,69,0.00,,,0.00,WeatherCatV1.15B25,2013-07-03 23:37:00,
2013-07-03 19:42:00,77.3,65.9,29.98,South,178,2.0,4.0,68,0.00,,,0.00,WeatherCatV1.15B25,2013-07-03 23:42:00,
2013-07-03 19:47:00,77.2,66.2,29.98,South,170,2.0,4.0,69,0.00,,,0.00,WeatherCatV1.15B25,2013-07-03 23:47:00,
2013-07-03 19:52:00,77.0,66.4,29.98,South,177,0.0,2.0,70,0.00,,,0.00,WeatherCatV1.15B25,2013-07-03 23:52:00,
2013-07-03 19:57:00,76.9,66.8,29.98,SE,140,0.0,1.0,71,0.00,,,0.00,WeatherCatV1.15B25,2013-07-03 23:57:00,
2013-07-03 20:02:00,76.8,66.7,29.98,East,91,0.0,1.0,71,0.00,,,0.00,WeatherCatV1.15B25,2013-07-04 00:02:00,
2013-07-03 20:07:00,76.8,66.7,29.98,East,94,0.0,2.0,71,0.00,,,0.00,WeatherCatV1.15B25,2013-07-04 00:07:00,
2013-07-03 20:12:00,76.7,67.0,29.97,East,94,0.0,0.0,72,0.00,,,0.00,WeatherCatV1.15B25,2013-07-04 00:12:00,
2013-07-03 20:17:00,76.6,66.9,29.97,East,94,0.0,1.0,72,0.00,,,0.00,WeatherCatV1.15B25,2013-07-04 00:17:00,
2013-07-03 20:22:00,76.3,67.4,29.98,East,94,0.0,0.0,74,0.00,,,0.00,WeatherCatV1.15B25,2013-07-04 00:22:00,
2013-07-03 20:27:00,76.0,67.9,29.98,NW,313,0.0,1.0,76,0.00,,,0.00,WeatherCatV1.15B25,2013-07-04 00:27:00,
2013-07-03 20:32:00,75.7,67.6,29.98,NW,313,0.0,0.0,76,0.00,,,0.00,WeatherCatV1.15B25,2013-07-04 00:32:00,
2013-07-03 20:37:00,75.3,67.6,29.98,SSW,213,0.0,1.0,77,0.00,,,0.00,WeatherCatV1.15B25,2013-07-04 00:37:00,
2013-07-03 20:42:00,75.0,66.9,29.98,West,269,0.0,0.0,76,0.00,,,0.00,WeatherCatV1.15B25,2013-07-04 00:42:00,
2013-07-03 20:47:00,74.8,66.7,29.98,West,269,0.0,0.0,76,0.00,,,0.00,WeatherCatV1.15B25,2013-07-04 00:47:00,
2013-07-03 20:52:00,74.6,66.9,29.98,South,171,0.0,1.0,77,0.00,,,0.00,WeatherCatV1.15B25,2013-07-04 00:52:00,
2013-07-03 20:57:00,74.4,66.7,29.98,South,171,0.0,0.0,77,0.00,,,0.00,WeatherCatV1.15B25,2013-07-04 00:57:00,
2013-07-03 21:02:00,74.3,67.0,29.98,West,281,0.0,0.0,78,0.00,,,0.00,WeatherCatV1.15B25,2013-07-04 01:02:00,
2013-07-03 21:07:00,74.2,67.3,29.98,SSE,168,0.0,0.0,79,0.00,,,0.00,WeatherCatV1.15B25,2013-07-04 01:07:00,
2013-07-03 21:12:00,74.0,67.4,29.98,SSE,168,0.0,0.0,80,0.00,,,0.00,WeatherCatV1.15B25,2013-07-04 01:12:00,
2013-07-03 21:17:00,73.7,68.2,29.98,SSE,168,0.0,0.0,83,0.00,,,0.00,WeatherCatV1.15B25,2013-07-04 01:17:00,
2013-07-03 21:23:00,73.5,68.4,29.98,SSE,168,0.0,0.0,84,0.00,,,0.00,WeatherCatV1.15B25,2013-07-04 01:23:00,
2013-07-03 21:28:00,73.1,67.3,29.99,SSE,168,0.0,0.0,82,0.00,,,0.00,WeatherCatV1.15B25,2013-07-04 01:28:00,
2013-07-03 21:33:00,72.6,66.8,29.99,SSE,168,0.0,0.0,82,0.00,,,0.00,WeatherCatV1.15B25,2013-07-04 01:33:00,
2013-07-03 21:38:00,72.3,66.8,29.99,SSE,168,0.0,0.0,83,0.00,,,0.00,WeatherCatV1.15B25,2013-07-04 01:38:00,
2013-07-03 21:43:00,72.2,67.1,30.00,SSE,168,1.0,1.0,84,0.00,,,0.00,WeatherCatV1.15B25,2013-07-04 01:43:00,
2013-07-03 21:48:00,72.4,66.9,30.00,SSW,209,6.0,6.0,83,0.00,,,0.01,WeatherCatV1.15B25,2013-07-04 01:48:00,
2013-07-03 21:53:00,72.1,66.3,30.01,WSW,237,11.0,13.0,82,3.03,,,0.06,WeatherCatV1.15B25,2013-07-04 01:53:00,
2013-07-03 21:58:00,70.6,63.0,30.00,SW,218,3.0,6.0,77,0.57,,,0.15,WeatherCatV1.15B25,2013-07-04 01:58:00,
2013-07-03 22:03:00,70.5,64.7,30.00,SW,232,2.0,8.0,82,0.26,,,0.17,WeatherCatV1.15B25,2013-07-04 02:03:00,
2013-07-03 22:08:00,70.0,64.9,30.01,South,171,1.0,3.0,84,0.12,,,0.18,WeatherCatV1.15B25,2013-07-04 02:08:00,
2013-07-03 22:13:00,69.4,65.0,30.00,South,171,0.0,1.0,86,0.08,,,0.19,WeatherCatV1.15B25,2013-07-04 02:13:00,
2013-07-03 22:18:00,68.9,65.2,30.01,South,171,0.0,0.0,88,0.07,,,0.19,WeatherCatV1.15B25,2013-07-04 02:18:00,
2013-07-03 22:23:00,68.6,65.2,30.01,South,172,1.0,2.0,89,0.05,,,0.19,WeatherCatV1.15B25,2013-07-04 02:23:00,
2013-07-03 22:28:00,68.3,65.2,30.01,SW,216,2.0,2.0,90,0.00,,,0.19,WeatherCatV1.15B25,2013-07-04 02:28:00,
2013-07-03 22:33:00,68.2,65.5,30.01,South,189,3.0,5.0,91,0.00,,,0.20,WeatherCatV1.15B25,2013-07-04 02:33:00,
2013-07-03 22:38:00,68.3,65.6,30.00,South,180,0.0,0.0,91,0.00,,,0.20,WeatherCatV1.15B25,2013-07-04 02:38:00,
2013-07-03 22:43:00,68.3,65.6,30.01,South,180,0.0,0.0,91,0.00,,,0.20,WeatherCatV1.15B25,2013-07-04 02:43:00,
2013-07-03 22:48:00,68.2,65.5,30.01,South,180,0.0,1.0,91,0.00,,,0.20,WeatherCatV1.15B25,2013-07-04 02:48:00,
2013-07-03 22:53:00,68.0,65.6,30.00,South,180,0.0,1.0,92,0.00,,,0.20,WeatherCatV1.15B25,2013-07-04 02:53:00,
2013-07-03 22:58:00,67.9,65.5,30.00,South,180,0.0,0.0,92,0.00,,,0.21,WeatherCatV1.15B25,2013-07-04 02:58:00,
2013-07-03 23:03:00,67.8,65.4,30.01,South,180,0.0,0.0,92,0.00,,,0.21,WeatherCatV1.15B25,2013-07-04 03:03:00,
2013-07-03 23:08:00,67.7,65.3,30.01,South,180,0.0,0.0,92,0.00,,,0.21,WeatherCatV1.15B25,2013-07-04 03:08:00,
2013-07-03 23:13:00,67.6,65.5,30.01,South,180,0.0,0.0,93,0.00,,,0.21,WeatherCatV1.15B25,2013-07-04 03:13:00,
2013-07-03 23:18:00,67.4,65.3,30.01,South,180,0.0,0.0,93,0.00,,,0.21,WeatherCatV1.15B25,2013-07-04 03:18:00,
2013-07-03 23:23:00,67.3,65.2,30.01,South,180,0.0,0.0,93,0.00,,,0.21,WeatherCatV1.15B25,2013-07-04 03:23:00,
2013-07-03 23:28:00,67.2,65.1,30.01,South,180,0.0,0.0,93,0.00,,,0.21,WeatherCatV1.15B25,2013-07-04 03:28:00,
2013-07-03 23:33:00,67.0,64.9,30.01,South,180,0.0,0.0,93,0.00,,,0.21,WeatherCatV1.15B25,2013-07-04 03:33:00,
2013-07-03 23:38:00,66.9,64.8,30.01,South,180,0.0,0.0,93,0.00,,,0.21,WeatherCatV1.15B25,2013-07-04 03:38:00,
2013-07-03 23:43:00,66.8,65.0,30.01,South,180,0.0,0.0,94,0.00,,,0.21,WeatherCatV1.15B25,2013-07-04 03:43:00,
2013-07-03 23:48:00,66.7,64.9,30.01,South,180,0.0,0.0,94,0.00,,,0.21,WeatherCatV1.15B25,2013-07-04 03:48:00,
2013-07-03 23:53:00,66.7,64.9,30.01,South,180,0.0,0.0,94,0.00,,,0.21,WeatherCatV1.15B25,2013-07-04 03:53:00,
2013-07-03 23:58:00,66.5,64.7,30.01,South,180,0.0,0.0,94,0.00,,,0.21,WeatherCatV1.15B25,2013-07-04 03:58:00,